Location: ??
(36.7391°N, 127.5151°E)
Time: 09:23:40
(UTC+00:00)

Intercosmos 24 - Pass Details

Date: 07 June 2020
Orbit: 498 x 2380 km, 82.6° (Epoch: 03 July)

Event Time Altitude Azimuth Distance (km) Brightness Sun altitude
Rises 11:42:21 0° 353° (N) 2,622 8.0 -10.0°
Reaches altitude 10° 11:44:16 10° 354° (N) 1,787 7.1 -10.3°
Maximum altitude 11:48:02 87° 85° (E) 619 4.0 -10.9°
Drops below altitude 10° 11:52:58 10° 173° (S) 2,329 6.6 -11.7°
Enters shadow 11:54:02 - 174° (S) 2,781 7.0 -11.8°
